[[{"header":{"parameterUnit":"m.s-1","parameterCategory":1,"la1":30.2991,"la2":30.254,"lo1":-89.0895,"lo2":-89.0444,"dy":0.0017,"dx":0.0017,"nx":28,"ny":28,"refTime":"2023-10-29T21:00:00:Z","depth":0,"parameterNumber":2,"parameterNumberName":"U-component_of_WINDS"},"data":[0,0,0,0,0,0,0,0,0,0,0,0,0,0,0,0,0,0,0,0,0,0,0,0,0,0,0,0,0,0,0,0,0,0,0,0,0,0,0,0,0,0,0,0,0,0,0,0,0,0,0,0,0,0,0,0,0,0,0.0248,0.0248,0,0.0194,0.0193,0.0193,0.0178,0.0178,0.0178,0.0178,0.0121,0.0119,0.0118,0,0,0,0,0,0,0,0,0,0,0,0,0,0.0339,0.0337,0.0248,0.0248,0.0247,0.0194,0.0193,0.0193,0.0177,0.0178,0.0178,0.0179,0.0122,0.012,0.0118,0,0,0,0,0,0,0,0,0,0,0,0,0,0.0293,0.0336,0.0248,0.0233,0.0231,0.0194,0.0193,0.0192,0.0177,0.0178,0.0178,0.0179,0.0123,0.012,0.0117,0.0091,0,0,0.0109,0.0108,0,0,0,0,0,0,0,0,0.0296,0.029,0.0236,0.0234,0.0232,0.0193,0.0204,0.0158,0.0177,0.0198,0.0178,0.0179,0.0145,0.014,0.0129,0.0088,0.0086,0.0109,0.0107,0.0106,0.0105,0,0,0,0,0,0,0,0.0299,0.0292,0.0227,0.0235,0.0233,0.0229,0.0223,0.0195,0.0169,0.0196,0.0195,0.0189,0.0144,0.0132,0.0127,0.0085,0.0109,0.0106,0.0105,0.0104,0.0021,0.0021,0,0,0,0,0,0,0.0305,0.0295,0.0228,0.0225,0.0266,0.0227,0.022,0.0205,0.0169,0.0165,0.0188,0.0188,0.0136,0.0131,0.0125,0.0093,0.0106,0.0103,0.0102,0.0022,0.0021,0.0021,0,0,0,0,0,0,0.0307,0.0299,0.0231,0.026,0.0251,0.0225,0.0208,0.0204,0.0192,0.0164,0.0159,0.0181,0.0136,0.0129,0.01,0.009,0.0102,0.01,0.0023,0.0022,0.0021,0.0027,0,0,0,0,0,0,0.031,0.03,0.029,0.026,0.0249,0.0206,0.0207,0.0202,0.0187,0.0186,0.0155,0.0151,0.0136,0.0104,0.0097,0.0087,0.0097,0.0023,0.0022,0.0021,0.0028,0.0027,0.0026,0,0,0,0,0,0.0313,0.0293,0.0289,0.0281,0.0236,0.0206,0.02,0.0184,0.0186,0.0176,0.0158,0.0152,0.0093,0.0101,0.0093,0.0082,0.0024,0.0022,0.0021,0.0028,0.0027,0.0026,0,0,0,0,0,0,0.0322,0.0289,0.0284,0.0254,0.0233,0.0203,0.0189,0.0183,0.016,0.016,0.0141,0.0134,0.0106,0.0091,0.0101,0.0055,0.0058,0.0055,0.0066,0.0065,0.0064,0.0067,0.0095,0,0,0,0,0,0.0321,0.0299,0.0271,0.0248,0.0237,0.0215,0.0202,0.0191,0.0168,0.0159,0.0139,0.0117,0.0093,0.0078,0.0055,0.0026,0.0019,0.0014,0.0013,0.0013,0.001,-0.0006,-0.0008,0.0016,0.0017,0.0017,0,0,0.0317,0.0297,0.0284,0.0249,0.0231,0.021,0.0208,0.0185,0.0168,0.0155,0.0127,0.0112,0.0085,0.0056,0.0042,0.0043,0.0002,0.0011,0.0011,0.0008,-0.0008,-0.001,-0.0012,0.0016,0.0016,0.0016,0,0,0.03,0.0282,0.0261,0.0244,0.0217,0.0203,0.0198,0.017,0.0159,0.013,0.0121,0.0101,0.0061,0.0043,0.0028,0.0006,-0.0001,-0.0001,-0.0006,-0.0022,-0.0024,-0.0025,-0.0033,-0.0036,-0.0003,-0.0003,-0.0003,0,0.0299,0.0266,0.025,0.0228,0.0213,0.0202,0.018,0.0164,0.0131,0.0121,0.0122,0.0072,0.0054,0.0021,0.0015,0.0004,-0.0002,0.0002,-0.0022,-0.0024,-0.0026,-0.0034,-0.0037,-0.0003,-0.0003,-0.0003,-0.0003,0,0.0266,0.0243,0.0229,0.0199,0.0182,0.016,0.0141,0.0127,0.0118,0.0104,0.0075,0.0053,0.0025,0.0017,0.0008,-0.0017,-0.0016,-0.0018,-0.0016,-0.0028,-0.0036,-0.0039,-0.0003,-0.0003,-0.0003,-0.0003,0,0,0.0252,0.0214,0.0209,0.0196,0.0166,0.0148,0.0126,0.01,0.0088,0.0066,0.0047,0.0014,0.0013,-0.0004,-0.0014,-0.0028,-0.0044,-0.0028,-0.0029,-0.003,-0.0073,-0.0072,-0.0075,-0.0048,-0.0049,-0.0049,-0.0071,0,0.023,0.019,0.0177,0.0143,0.0123,0.0112,0.0093,0.0073,0.0059,0.004,0.0025,0.0002,0.0001,-0.0008,-0.0022,-0.0039,-0.0053,-0.0038,-0.0066,-0.0067,-0.006,-0.0079,-0.0078,-0.0098,-0.0074,-0.0074,-0.0075,0,0.02,0.0179,0.0144,0.0118,0.0109,0.0092,0.0067,0.0049,0.0026,0.0017,0.0,-0.0009,-0.0033,-0.0028,-0.0061,-0.005,-0.0063,-0.0073,-0.0074,-0.0078,-0.0072,-0.0084,-0.0104,-0.0107,-0.008,-0.0079,-0.0079,0,0.0193,0.0156,0.013,0.0119,0.0088,0.0077,0.0063,0.0041,0.0027,0.0006,-0.0004,-0.0028,-0.0041,-0.006,-0.0075,-0.007,-0.0106,-0.0103,-0.0115,-0.0114,-0.0123,-0.0122,-0.0146,-0.013,-0.0129,-0.0129,-0.0129,0,0.017,0.0149,0.0127,0.0111,0.0087,0.0072,0.0049,0.0035,0.0016,-0.0003,-0.0013,-0.0031,-0.005,-0.007,-0.0082,-0.0107,-0.0113,-0.0121,-0.0124,-0.012,-0.0119,-0.0129,-0.0128,-0.013,-0.013,-0.013,-0.013,0,0.0158,0.0142,0.0113,0.0087,0.008,0.0064,0.0042,0.0026,0.0013,-0.001,-0.0017,-0.0038,-0.0062,-0.0079,-0.0109,-0.0117,-0.0144,-0.0147,-0.0137,-0.0138,-0.0149,-0.0148,-0.018,-0.0185,-0.0165,-0.0165,-0.0166,0,0.0144,0.0128,0.0101,0.0088,0.0075,0.0054,0.004,0.0024,0.0009,-0.0017,-0.0029,-0.0053,-0.0073,-0.0111,-0.0129,-0.0152,-0.0156,-0.0166,-0.016,-0.0155,-0.0156,-0.0155,-0.0157,-0.0167,-0.0167,-0.0167,-0.0167,0,0.0122,0.0115,0.0094,0.0072,0.0055,0.0036,0.0017,0.0007,-0.0012,-0.0027,-0.0051,-0.0067,-0.0097,-0.0121,-0.0146,-0.016,-0.0167,-0.0169,-0.0172,-0.0169,-0.0162,-0.0166,-0.0139,-0.0168,-0.0168,-0.0168,-0.0168,-0.0168,0.0108,0.0093,0.0072,0.005,0.0034,0.0017,0.0002,-0.0013,-0.0033,-0.0059,-0.0067,-0.0091,-0.0113,-0.0146,-0.016,-0.018,-0.0179,-0.0185,-0.0187,-0.0188,-0.0188,-0.0159,-0.0184,-0.0184,-0.0184,-0.0184,-0.0184,0,0.0085,0.0071,0.0051,0.0025,0.0008,0.0004,-0.0017,-0.0031,-0.0052,-0.0071,-0.009,-0.0117,-0.014,-0.0159,-0.0183,-0.0195,-0.0198,-0.02,-0.02,-0.0203,-0.0187,-0.0181,-0.0197,-0.0197,-0.0197,-0.0197,-0.0197,-0.0197,0.007,0.0046,0.0037,0.0004,-0.0009,-0.0033,-0.0045,-0.006,-0.0076,-0.0105,-0.0124,-0.0136,-0.0155,-0.0179,-0.02,-0.0205,-0.0214,-0.0215,-0.0221,-0.0206,-0.0204,-0.0203,-0.0198,-0.0217,-0.0217,-0.0235,-0.0236,-0.0236]},{"header":{"parameterUnit":"m.s-1","parameterCategory":1,"la1":30.2991,"la2":30.254,"lo1":-89.0895,"lo2":-89.0444,"dy":0.0017,"dx":0.0017,"nx":28,"ny":28,"refTime":"2023-10-29T21:00:00:Z","depth":0,"parameterNumber":3,"parameterNumberName":"V-component_of_WINDS"},"data":[0,0,0,0,0,0,0,0,0,0,0,0,0,0,0,0,0,0,0,0,0,0,0,0,0,0,0,0,0,0,0,0,0,0,0,0,0,0,0,0,0,0,0,0,0,0,0,0,0,0,0,0,0,0,0,0,0,0,-7.6864,-7.6865,0,-7.6931,-7.6932,-7.6933,-7.6856,-7.6853,-7.6851,-7.6848,-7.691,-7.6914,-7.6918,0,0,0,0,0,0,0,0,0,0,0,0,0,-7.6663,-7.6667,-7.6864,-7.6865,-7.6866,-7.6931,-7.6932,-7.6933,-7.6857,-7.6853,-7.685,-7.6846,-7.6908,-7.6913,-7.6918,0,0,0,0,0,0,0,0,0,0,0,0,0,-7.6742,-7.6669,-7.6864,-7.6836,-7.6834,-7.6931,-7.6932,-7.6933,-7.6857,-7.6853,-7.6849,-7.6845,-7.6906,-7.6913,-7.6919,-7.7045,0,0,-7.6939,-7.6942,0,0,0,0,0,0,0,0,-7.6738,-7.675,-7.6839,-7.6838,-7.6836,-7.6881,-7.6884,-7.697,-7.6859,-7.6848,-7.6848,-7.6843,-7.6903,-7.691,-7.6931,-7.7048,-7.7051,-7.6939,-7.6943,-7.6946,-7.6948,0,0,0,0,0,0,0,-7.6732,-7.6746,-7.689,-7.6841,-7.6839,-7.6818,-7.6824,-7.69,-7.6899,-7.6849,-7.6844,-7.6853,-7.6901,-7.6925,-7.6932,-7.7051,-7.6939,-7.6945,-7.6949,-7.6952,-7.7274,-7.7278,0,0,0,0,0,0,-7.6731,-7.6742,-7.6888,-7.6892,-7.6776,-7.6825,-7.6832,-7.6871,-7.6898,-7.6898,-7.6857,-7.6849,-7.6916,-7.6925,-7.6934,-7.7083,-7.6946,-7.6952,-7.6956,-7.7269,-7.7275,-7.728,0,0,0,0,0,0,-7.6727,-7.6745,-7.6886,-7.6816,-7.6832,-7.6833,-7.6877,-7.6874,-7.6898,-7.6904,-7.6902,-7.6882,-7.6913,-7.6925,-7.7018,-7.7084,-7.6955,-7.6961,-7.7264,-7.7271,-7.7277,-7.7382,0,0,0,0,0,0,-7.6722,-7.6744,-7.6793,-7.6818,-7.6836,-7.6971,-7.6881,-7.6879,-7.6911,-7.6902,-7.6927,-7.6927,-7.6911,-7.7009,-7.7025,-7.709,-7.6966,-7.7258,-7.7267,-7.7275,-7.7372,-7.7391,-7.7408,0,0,0,0,0,-7.6715,-7.6818,-7.6796,-7.6814,-7.6899,-7.6975,-7.6985,-7.6967,-7.6916,-7.6965,-7.6968,-7.6926,-7.7075,-7.7019,-7.7036,-7.7105,-7.7253,-7.7264,-7.7274,-7.7364,-7.7388,-7.7407,0,0,0,0,0,0,-7.6799,-7.6821,-7.6797,-7.6912,-7.6943,-7.6962,-7.7022,-7.6992,-7.7036,-7.7025,-7.6998,-7.7004,-7.7104,-7.7114,-7.7052,-7.7228,-7.7155,-7.717,-7.7218,-7.724,-7.7257,-7.7252,-7.6971,0,0,0,0,0,-7.6831,-7.6894,-7.6909,-7.7009,-7.7026,-7.7022,-7.7055,-7.7038,-7.7067,-7.7079,-7.7089,-7.7118,-7.7171,-7.7206,-7.7255,-7.7374,-7.7377,-7.7429,-7.7447,-7.7461,-7.7474,-7.7536,-7.7559,-7.7314,-7.7314,-7.7314,0,0,-7.6898,-7.6918,-7.6958,-7.7026,-7.7048,-7.7111,-7.7033,-7.7103,-7.7149,-7.7089,-7.7178,-7.7187,-7.7217,-7.7324,-7.7371,-7.7334,-7.7542,-7.7475,-7.7486,-7.7491,-7.755,-7.7573,-7.7593,-7.7322,-7.732,-7.7319,0,0,-7.7051,-7.7074,-7.7159,-7.7183,-7.7218,-7.7215,-7.7236,-7.7261,-7.7265,-7.7355,-7.7311,-7.7364,-7.7456,-7.7479,-7.7503,-7.7667,-7.7629,-7.7683,-7.7775,-7.7837,-7.7856,-7.7873,-7.793,-7.7951,-7.7696,-7.7696,-7.7696,0,-7.7129,-7.7225,-7.7206,-7.7281,-7.7311,-7.7263,-7.7348,-7.7371,-7.742,-7.7441,-7.74,-7.7515,-7.7532,-7.7643,-7.7683,-7.7704,-7.7726,-7.768,-7.7855,-7.7872,-7.7887,-7.7942,-7.7964,-7.7703,-7.7702,-7.7701,-7.7701,0,-7.7318,-7.7385,-7.745,-7.7501,-7.7539,-7.7618,-7.761,-7.765,-7.7631,-7.7631,-7.7723,-7.7741,-7.7793,-7.7818,-7.7799,-7.7927,-7.7903,-7.786,-7.7786,-7.7917,-7.7968,-7.7989,-7.7712,-7.7709,-7.7707,-7.7706,0,0,-7.7524,-7.7566,-7.759,-7.7613,-7.7648,-7.7699,-7.7775,-7.7829,-7.7863,-7.7898,-7.796,-7.804,-7.8,-7.8027,-7.801,-7.8064,-7.8192,-7.8014,-7.8014,-7.8045,-7.8333,-7.8365,-7.839,-7.8168,-7.8172,-7.8175,-7.833,0,-7.7678,-7.7814,-7.78,-7.7928,-7.7989,-7.7945,-7.8011,-7.8039,-7.8042,-7.8092,-7.8094,-7.8151,-7.8095,-7.8111,-7.8163,-7.8166,-7.8249,-7.8154,-7.8224,-7.8226,-7.8217,-7.8416,-7.845,-7.8596,-7.835,-7.8353,-7.8356,0,-7.7875,-7.7921,-7.8056,-7.8083,-7.8108,-7.8168,-7.8216,-7.8266,-7.8296,-7.8294,-7.8325,-7.8299,-7.8373,-7.83,-7.8402,-7.8337,-7.8365,-7.8371,-7.8376,-7.8381,-7.8298,-7.8425,-7.8642,-7.8663,-7.8387,-7.8384,-7.8382,0,-7.8012,-7.8106,-7.8199,-7.822,-7.8254,-7.8297,-7.8313,-7.8339,-7.8372,-7.8413,-7.8434,-7.8483,-7.8509,-7.8546,-7.8532,-7.848,-7.8637,-7.8562,-7.8635,-7.8636,-7.8669,-7.8667,-7.8892,-7.8689,-7.8689,-7.8689,-7.8688,0,-7.8184,-7.8268,-7.8261,-7.8318,-7.841,-7.8393,-7.8484,-7.8494,-7.8518,-7.8574,-7.8538,-7.8591,-7.8571,-7.8622,-7.8612,-7.8697,-7.871,-7.8709,-7.8705,-7.8712,-7.8712,-7.8728,-7.8717,-7.8694,-7.8693,-7.8692,-7.8691,0,-7.8351,-7.835,-7.8448,-7.8474,-7.8482,-7.8549,-7.8569,-7.8621,-7.8622,-7.8694,-7.871,-7.871,-7.8769,-7.876,-7.8824,-7.8817,-7.8924,-7.8908,-7.8914,-7.891,-7.8984,-7.8977,-7.9226,-7.9258,-7.9036,-7.9038,-7.904,0,-7.8461,-7.8525,-7.8558,-7.8595,-7.8614,-7.8673,-7.8708,-7.8693,-7.8729,-7.877,-7.8817,-7.8873,-7.8917,-7.9013,-7.9017,-7.9067,-7.9051,-7.9135,-7.9058,-7.9062,-7.9051,-7.9047,-7.9052,-7.915,-7.9152,-7.9154,-7.9156,0,-7.8655,-7.8652,-7.8704,-7.8757,-7.88,-7.884,-7.8876,-7.8907,-7.8895,-7.8938,-7.9,-7.9034,-7.9101,-7.9157,-7.9203,-7.9216,-7.9184,-7.9181,-7.92,-7.9207,-7.9208,-7.9207,-7.8955,-7.9174,-7.9173,-7.9171,-7.917,-7.917,-7.8796,-7.8851,-7.8883,-7.8943,-7.8969,-7.9004,-7.9055,-7.9063,-7.9115,-7.917,-7.9158,-7.9227,-7.9254,-7.9314,-7.9332,-7.9384,-7.9353,-7.9381,-7.9388,-7.9395,-7.9404,-7.9201,-7.9393,-7.9392,-7.9392,-7.9391,-7.9391,0,-7.8987,-7.9007,-7.9062,-7.9115,-7.9162,-7.913,-7.9168,-7.9209,-7.9271,-7.9301,-7.9346,-7.9416,-7.947,-7.948,-7.9531,-7.957,-7.9557,-7.9584,-7.958,-7.9584,-7.9429,-7.9407,-7.9594,-7.9594,-7.9594,-7.9594,-7.9594,-7.9594,-7.9092,-7.9184,-7.9185,-7.9288,-7.9306,-7.9375,-7.94,-7.9431,-7.9455,-7.9536,-7.9582,-7.9589,-7.961,-7.9663,-7.971,-7.9711,-7.9731,-7.9764,-7.976,-7.9615,-7.9594,-7.9575,-7.9554,-7.9769,-7.9769,-7.9909,-7.991,-7.9911]}]]